Flight Track Log - Related Links

Times and Time Zones

All times are in EDT time to prevent confusion due to time zone crossing. See the SWA3228 flight status page for this flight to view local times or setup timezone preferences in your user account.

Time Position Orientation Groundspeed Altitude Reporting Facility
EDT Latitude Longitude Course Direction KTS MPH feet Rate Location/Type
Tue 12:48:38 PM 41.7667 -87.7667 346° North 156 180 1,700  Level Chicago TRACON
Tue 12:49:38 PM 41.8167 -87.7833 346° North 242 278 3,100 1,461 Climbing Chicago TRACON
Tue 12:51:10 PM 41.8156 -87.6464 91° East 273 314 5,400 2,766 Climbing Chicago Center
Tue 12:52:12 PM 41.8050 -87.5400 98° East 288 331 10,200 3,435 Climbing Chicago Center
Tue 12:53:14 PM 41.7947 -87.4189 96° East 324 373 12,500 3,242 Climbing Chicago Center
Tue 12:54:16 PM 41.7800 -87.2492 97° East 373 429 16,900 3,268 Climbing Chicago Center
Tue 12:55:17 PM 41.7667 -87.1006 97° East 393 452 19,200 2,390 Climbing Chicago Center
Tue 12:56:19 PM 41.7628 -86.9331 92° East 444 511 21,800 2,661 Climbing Chicago Center
Tue 12:57:21 PM 41.7667 -86.7717 88° East 443 510 24,700 2,177 Climbing Chicago Center
Tue 12:58:23 PM 41.7661 -86.5933 90° East 474 545 26,300 1,984 Climbing Chicago Center
Tue 12:59:25 PM 41.7694 -86.4147 89° East 485 558 28,800 2,177 Climbing Chicago Center
Tue 01:00:27 PM 41.7728 -86.2017 89° East 478 550 30,800 2,049 Climbing Chicago Center
Tue 01:01:28 PM 41.7967 -86.0211 80° East 490 564 33,000 1,073 Climbing Chicago Center
Tue 01:02:30 PM 41.8181 -85.8347 81° East 503 579 33,000  Level Chicago Center
Tue 01:03:32 PM 41.8386 -85.6308 82° East 541 623 33,000  Level Chicago Center
Tue 01:04:34 PM 41.8597 -85.4308 82° East 534 615 33,000  Level Chicago Center
Tue 01:05:26 PM 41.8811 -85.2636 80° East 534 615 33,000  Level Cleveland Center
Tue 01:06:26 PM 41.8992 -85.0725 83° East 534 615 33,000  Level Cleveland Center
Tue 01:07:26 PM 41.9172 -84.8756 83° East 534 615 33,000  Level Cleveland Center
Tue 01:08:26 PM 41.9347 -84.6783 83° East 534 615 33,000  Level Cleveland Center
Tue 01:09:26 PM 41.9561 -84.4842 82° East 534 615 33,000  Level Cleveland Center
Tue 01:10:26 PM 41.9717 -84.2672 84° East 534 615 33,000  Level Cleveland Center
Tue 01:11:26 PM 41.9922 -84.0728 82° East 534 615 33,000 -1,250 Level Cleveland Center
Tue 01:12:26 PM 42.0086 -83.8753 84° East 534 615 30,500 -2,900 Descending Cleveland Center
Tue 01:13:26 PM 42.0264 -83.6833 83° East 529 609 27,200 -3,200 Descending Cleveland Center
Tue 01:14:26 PM 42.0417 -83.4994 84° East 509 586 24,100 -3,100 Descending Cleveland Center
Tue 01:15:26 PM 42.0356 -83.3314 93° East 474 545 21,000 -3,050 Descending Cleveland Center
Tue 01:16:26 PM 42.0183 -83.1714 98° East 449 517 18,000 -2,400 Descending Cleveland Center
Tue 01:17:26 PM 42.0031 -83.0142 97° East 425 489 16,200 -1,350 Descending Cleveland Center
Tue 01:18:26 PM 41.9892 -82.8711 97° East 425 489 15,300 -950 Descending Cleveland Center
Tue 01:19:26 PM 41.9736 -82.7142 98° East 430 495 14,300 -700 Descending Cleveland Center
Tue 01:20:26 PM 41.9556 -82.5572 99° East 425 489 13,900 -305 Descending Cleveland Center
Tue 01:21:24 PM 41.9139 -82.4192 112° Southeast 386 444 13,700 -1,483 Descending Cleveland Center
Tue 01:21:55 PM 41.8922 -82.3461 112° Southeast 388 447 11,700 -3,290 Descending Cleveland Center
Tue 01:22:26 PM 41.8744 -82.2869 112° Southeast 395 455 10,300 -1,600 Descending Cleveland Center
Tue 01:22:55 PM 41.8503 -82.2167 115° Southeast 360 414 10,100 -200 Descending Cleveland Center
Tue 01:23:26 PM 41.8344 -82.1661 113° Southeast 375 432 10,100  Level Cleveland Center
Tue 01:23:50 PM 41.7975 -82.1178 136° Southeast 364 419 10,100 -100 Level Cleveland Center
Tue 01:24:26 PM 41.7586 -82.0722 139° Southeast 358 412 10,000 -76 Descending Cleveland Center
Tue 01:25:09 PM 41.6906 -82.0097 146° Southeast 365 420 10,000  Level Cleveland Center
Tue 01:25:26 PM 41.6781 -81.9956 140° Southeast 358 412 10,000 -375 Level Cleveland Center
Tue 01:25:57 PM 41.6389 -81.9583 145° Southeast 288 331 9,700 -1,000 Descending Cleveland Center
Tue 01:26:26 PM 41.6144 -81.9272 136° Southeast 319 367 9,000 -1,791 Descending Cleveland Center
Tue 01:27:04 PM 41.5756 -81.8683 131° Southeast 281 323 7,700 -1,800 Descending Cleveland Center
Tue 01:27:26 PM 41.5653 -81.8431 119° Southeast 283 326 7,200 -1,672 Descending Cleveland Center
Tue 01:28:05 PM 41.5681 -81.7681 87° East 276 318 6,000 -1,700 Descending Cleveland Center
Tue 01:28:26 PM 41.5622 -81.7292 101° East 259 298 5,500 -1,667 Descending Cleveland Center
Tue 01:28:59 PM 41.5397 -81.7011 137° Southeast 259 298 4,500 -1,900 Descending Cleveland Center
Tue 01:29:26 PM 41.5064 -81.7006 179° South 201 231 3,600 -1,475 Descending Cleveland Center
Tue 01:30:00 PM 41.4767 -81.7500 231° Southwest 253 291 3,000 -600 Descending Cleveland Center
Tue 01:30:26 PM 41.4619 -81.7689 224° Southwest 183 211 3,000 -222 Level Cleveland Center
Tue 01:30:54 PM 41.4511 -81.7908 237° Southwest 149 171 2,800 -1,074 Descending Cleveland Center
Tue 01:32:01 PM 41.4258 -81.8319 231° Southwest 121 139 1,300 -1,343 Descending Cleveland Center
Tue 01:34:00 PM 41.4000 -81.8500 153° Southeast  Level FlightAware Approximate

Login

Don't have an account? Register now (free) for customized features, flight alerts, and more!